Regional Weather Roundup
Issued by NWS

Home | Current Version | Previous Version | Text Only | Print | Product List | Glossary Off
Versions: 1 2 3 4 5 6 7 8 9 10 11 12 13 14 15 16 17 18 19 20 21 22 23 24 25 26 27 28 29 30 31 32 33 34 35 36 37 38 39 40 41 42 43 44 45 46 47 48 49 50

000
ASUS45 KTFX 300610
RWRMT
MONTANA REGIONAL WEATHER ROUNDUP
NATIONAL WEATHER SERVICE GREAT FALLS MT
1200 AM MDT SAT JUL 30 2016

NOTE: "FAIR" INDICATES FEW OR NO CLOUDS BELOW 12000 FEET WITH NO
SIGNIFICANT WEATHER AND/OR OBSTRUCTIONS TO VISIBILITY.

MTZ001>007-043-300700-
WEST OF THE DIVIDE

CITY           SKY/WX    TMP DP  RH WIND       PRES   REMARKS
KALISPELL      CLEAR     61  54  77 N7        29.84F
MISSOULA       CLEAR     69  46  43 N5        29.88S
BUTTE          CLEAR     64  41  42 S5        30.05S
MULLAN PASS    CLEAR     71  40  32 W3        30.07F
DEER LODGE       N/A     64  45  48 CALM      30.01S
EUREKA           N/A     73  52  46 SE7       29.82F
HAMILTON         N/A     70  48  46 CALM      29.91F
LIBBY            N/A     70  50  49 SE5       29.82F
PLAINS           N/A     72  52  49 CALM      29.86S
RONAN            N/A     62  52  70 MISG      29.92S
$$

MTZ008-052>055-300700-
SOUTHWEST MONTANA

CITY           SKY/WX    TMP DP  RH WIND       PRES   REMARKS
BOZEMAN        CLEAR     69  50  50 W7        29.98S
DILLON         CLEAR     68  42  38 E7        30.00F
W YELLOWSTONE  CLEAR     54  37  54 CALM      30.14F
ENNIS          CLEAR     66  39  37 SE8       30.07F
THREE FORKS      N/A     65  24  21 MISG      29.97S
TWIN BRIDGES     N/A     76  41  28 N6        29.99R
$$

MTZ009-010-012-014-046-048-049-054-300700-
EAST SLOPES AND CENTRAL MONTANA

CITY           SKY/WX    TMP DP  RH WIND       PRES   REMARKS
CUT BANK         N/A     68  51  54 SE7       29.93F
GREAT FALLS    CLEAR     67  49  52 E8        29.92F
MALMSTROM AFB  CLEAR     67  51  56 SE8       29.92F
HELENA         CLEAR     74  46  36 W8        29.93F
CHOTEAU          N/A     66  48  52 SW5       29.97F
$$

MTZ011-013-016-021-045-047-050-051-300700-
NORTH CENTRAL MONTANA

CITY           SKY/WX    TMP DP  RH WIND       PRES   REMARKS
HAVRE          CLEAR     68  55  63 NE3       29.89F
N BAR RANCH      N/A     59  48  67 W3        30.07F
CHINOOK          N/A     66  57  72 CALM      29.90F
$$

MTZ017>020-022>027-061-062-300700-
NORTHEAST MONTANA

CITY           SKY/WX    TMP DP  RH WIND       PRES   REMARKS
GLASGOW        CLEAR     63  55  75 E7        29.93F
JORDAN           N/A     65  57  75 E5        29.95F
SIDNEY         CLEAR     60  47  61 NW6       29.94F
WOLF POINT     CLEAR     63  55  75 CALM      29.94F
PLENTYWOOD       N/A     63  55  77 NE5       29.96S
POPLAR           N/A     64  54  68 CALM      29.95S
SCOBEY           N/A     56  41  57 CALM      29.95F
$$

MTZ028>42-056>058-300700-
SOUTHCENTRAL AND SOUTHEAST MONTANA

CITY           SKY/WX    TMP DP  RH WIND       PRES   REMARKS
BAKER          CLEAR     62  56  80 SE3       29.99F
BILLINGS       CLEAR     73  49  42 NE7       29.97F
LIVINGSTON     CLEAR     70  48  45 E16       30.00F
MILES CITY     CLEAR     67  53  61 NE6       29.95F
EKALAKA          N/A     62  52  70 SE5       29.99F
FORSYTH          N/A     70  55  60 SE3       29.95F
LAUREL           N/A     69  50  50 CALM      29.97F
ROUNDUP          N/A     68  50  52 CALM      29.91F
$$

REGIONAL REPORTS...DAKOTAS

CITY           SKY/WX    TMP DP  RH WIND       PRES   REMARKS
WILLISTON      CLEAR     62  56  80 CALM      29.95F
MINOT          PTCLDY    66  61  84 SE5       29.95S
DICKINSON      CLEAR     59  57  93 S5        29.95F
BEACH            N/A     57  55  94 CALM      30.00F
CROSBY           N/A     55  55 100 S7        29.97F
WATFORD CITY     N/A    N/A N/A N/A MISG        N/A
BISMARCK       CLOUDY    65  61  87 NE5       29.96F
GRAND FORKS    CLEAR     61  56  83 S5        29.98S
FARGO          CLOUDY    70  62  76 S6        30.00S
BUFFALO SD       N/A     68  55  63 SE3       29.93F
RAPID CITY     CLEAR     57  54  89 CALM      30.00F
$$

REGIONAL REPORTS...WYOMING/IDAHO/WASHINGTON

CITY           SKY/WX    TMP DP  RH WIND       PRES   REMARKS
GILLETTE       PTCLDY    67  56  67 SW15      30.05F
SHERIDAN       CLEAR     69  48  47 NE9       30.01F
BUFFALO WY     PTCLDY    65  49  56 W9        30.09R
CODY           CLEAR     63  52  67 S5        30.07F
YELLOWSTONE LA   N/A     50  39  66 CALM      30.25F
IDAHO FALLS    CLEAR     78  39  24 S9        29.94F
SALMON         CLEAR     72  41  33 CALM      29.90S
BOISE          CLEAR     81  38  21 SE7       29.81S
SPOKANE        CLEAR     81  42  25 SW7       29.78F
$$

REGIONAL REPORTS...ALBERTA

CITY           SKY/WX    TMP DP  RH WIND       PRES   REMARKS
EDMONTON       MOCLDY    64  57  77 SE8       29.76F
LETHBRIDGE     CLEAR     61  55  82 S14       29.85F
MEDICINE HAT   CLEAR     64  54  68 SE6       29.86F
WATERTON GATE    N/A     57  50  77 SW6         N/A
CARDSTON         N/A     68  52  56 S9          N/A
MILK RIVER       N/A     61  54  77 S3          N/A
ONEFOUR          N/A     64  50  59 E10         N/A
$$

REGIONAL REPORTS...SASKATCHEWAN

CITY           SKY/WX    TMP DP  RH WIND       PRES   REMARKS
SWIFT CURRENT  CLEAR     59  55  88 S7        29.92F
REGINA         PTCLDY    63  57  82 E6        29.92S
SASKATOON      CLEAR     61  61 100 S6        29.87S
CYPRESS HILLS    N/A     61  52  72 SE5         N/A
VAL MARIE        N/A     59  54  82 SE2         N/A
ROCKGLEN         N/A     59  54  82 S5          N/A
ASSINIBOIA       N/A     61  59  94 S5          N/A
$$



USA.gov is the U.S. government's official web portal to all federal, state and local government web resources and services.